Weather History for KSMQ - October, 2012

Change the Weather History Date:

Monday, October 8, 2012

  Actual Average Record
Temperature  
Mean Temperature 44 °F -  
Max Temperature 54 °F 66 °F 90 °F (2007)
Min Temperature 35 °F 41 °F 27 °F (1953)
Degree Days  
Heating Degree Days 21    
Moisture  
Dew Point 39 °F    
Average Humidity 89    
Maximum Humidity 100    
Minimum Humidity 61    
Precipitation  
Precipitation 0.02 in - - ()
Sea Level Pressure  
Sea Level Pressure 30.20 in    
Wind  
Wind Speed 0 mph (North)    
Max Wind Speed 5 mph    
Max Gust Speed -    
Visibility 5 miles    
Events Fog , Rain    
Averages and records for this station are not official NWS values.
T = Trace of Precipitation, MM = Missing Value Source: NWS Daily Summary

Daily Weather History Graph

Daily Weather History Graph

Search for Another Location

Airport or City:

Trip Planner

Search our weather history database for the weather conditions in past years. The results will help you decide how hot, cold, wet, or windy it might be!

Date:

Astronomy

Oct. 08, 2012 Rise Set
Actual Time 7:02 AM EDT 6:28 PM EDT
Civil Twilight 6:35 AM EDT 6:55 PM EDT
Nautical Twilight 6:03 AM EDT 7:27 PM EDT
Astronomical Twilight 5:32 AM EDT 7:59 PM EDT
Moon No Moon Rise 2:18 PM EDT (10/8)
Length of Visible Light 12h 20m
Length of Day
11h 25m
Waning Gibbous, 46% of the Moon is Illuminated
Oct 8
Waning Gibbous
Oct 15
New
Oct 21
First Quarter
Oct 29
Full
Nov 6
Last Quarter

Hourly Weather History & Observations

Time (EDT) Temp. Dew Point Humidity Pressure Visibility Wind Dir Wind Speed Gust Speed Precip Events Conditions
12:12 AM 42.8 °F 41.0 °F 93% 30.11 in 0.2 mi Calm Calm - N/A Fog Fog
12:53 AM 42.1 °F 41.0 °F 96% 30.12 in 0.2 mi Calm Calm - N/A Fog Fog
1:53 AM 41.0 °F 39.9 °F 96% 30.13 in 0.2 mi Calm Calm - N/A Fog Fog
2:53 AM 39.9 °F 37.9 °F 93% 30.15 in 0.5 mi Calm Calm - N/A Fog Fog
3:09 AM 39.2 °F 37.4 °F 93% 30.13 in 1.2 mi Calm Calm - N/A   Mostly Cloudy
3:14 AM 39.2 °F 37.4 °F 93% 30.13 in 3.0 mi Calm Calm - N/A   Scattered Clouds
3:29 AM 37.4 °F 37.4 °F 100% 30.13 in 1.8 mi Calm Calm - N/A   Partly Cloudy
3:41 AM 39.2 °F 37.4 °F 93% 30.13 in 3.0 mi Calm Calm - N/A   Partly Cloudy
3:53 AM 39.0 °F 37.0 °F 93% 30.14 in 3.0 mi Calm Calm - N/A   Partly Cloudy
3:58 AM 37.4 °F 37.4 °F 100% 30.13 in 1.8 mi Calm Calm - N/A   Partly Cloudy
4:02 AM 37.4 °F 35.6 °F 93% 30.13 in 0.8 mi Calm Calm - N/A   Mist
4:13 AM 37.4 °F 35.6 °F 93% 30.14 in 1.2 mi Calm Calm - N/A   Scattered Clouds
4:38 AM 35.6 °F 35.6 °F 100% 30.15 in 0.8 mi Calm Calm - N/A   Mist
4:53 AM 37.0 °F 36.0 °F 96% 30.16 in 0.5 mi Calm Calm - N/A Fog Fog
5:50 AM 35.6 °F 33.8 °F 93% 30.18 in 1.5 mi Calm Calm - N/A   Scattered Clouds
5:53 AM 36.0 °F 34.0 °F 93% 30.19 in 2.0 mi Calm Calm - N/A   Scattered Clouds
6:18 AM 35.6 °F 35.6 °F 100% 30.18 in 1.8 mi Calm Calm - N/A   Clear
6:24 AM 35.6 °F 35.6 °F 100% 30.19 in 3.0 mi Calm Calm - N/A   Clear
6:53 AM 36.0 °F 35.1 °F 97% 30.21 in 3.0 mi Calm Calm - N/A   Clear
7:04 AM 35.6 °F 33.8 °F 93% 30.21 in 1.8 mi Calm Calm - N/A   Clear
7:34 AM 35.6 °F 33.8 °F 93% 30.22 in 0.5 mi Calm Calm - N/A Fog Fog
7:41 AM 35.6 °F 33.8 °F 93% 30.22 in 1.2 mi Calm Calm - N/A   Partly Cloudy
7:44 AM 37.4 °F 35.6 °F 93% 30.22 in 3.0 mi Calm Calm - N/A   Partly Cloudy
7:53 AM 37.0 °F 36.0 °F 96% 30.23 in 6.0 mi Calm Calm - N/A   Partly Cloudy
8:53 AM 44.1 °F 42.1 °F 93% 30.26 in 10.0 mi Calm Calm - N/A   Clear
9:53 AM 48.0 °F 39.9 °F 74% 30.28 in 10.0 mi Calm Calm - N/A   Clear
10:53 AM 50.0 °F 39.0 °F 66% 30.26 in 10.0 mi North 3.5 mph - N/A   Clear
11:53 AM 52.0 °F 39.0 °F 61% 30.25 in 10.0 mi NE 3.5 mph - N/A   Clear
12:53 PM 53.1 °F 39.9 °F 61% 30.26 in 10.0 mi Calm Calm - N/A   Clear
1:53 PM 53.1 °F 39.9 °F 61% 30.27 in 10.0 mi Calm Calm - N/A   Mostly Cloudy
2:53 PM 53.1 °F 42.1 °F 66% 30.24 in 10.0 mi Calm Calm - N/A   Mostly Cloudy
3:53 PM 52.0 °F 43.0 °F 71% 30.25 in 10.0 mi Calm Calm - N/A   Overcast
4:53 PM 52.0 °F 44.1 °F 74% 30.26 in 10.0 mi Calm Calm - N/A   Overcast
5:53 PM 50.0 °F 46.9 °F 89% 30.27 in 10.0 mi Calm Calm - 0.02 in Rain Light Rain
6:53 PM 50.0 °F 46.0 °F 86% 30.25 in 10.0 mi Calm Calm - 0.00 in   Mostly Cloudy
7:53 PM 48.9 °F 46.9 °F 93% 30.24 in 10.0 mi Calm Calm - N/A   Mostly Cloudy
8:53 PM 48.0 °F 46.0 °F 93% 30.24 in 10.0 mi Calm Calm - N/A   Mostly Cloudy
10:53 PM 48.0 °F 46.0 °F 93% 30.24 in 10.0 mi Calm Calm - N/A   Overcast
11:53 PM 48.0 °F 45.0 °F 89% 30.22 in 10.0 mi NNW 4.6 mph - N/A   Partly Cloudy